Location: Casco Millpond
(44.5581°N, 87.6111°W)
Time: 22:02:30
(UTC+00:00)

COSMO-SKYMED 1 - Pass Details

Date: 16 January 2026
Orbit: 578 x 579 km, 97.9° (Epoch: 11 February)

Event Time Altitude Azimuth Distance (km) Brightness Sun altitude
Rises 12:12:22 0° 197° (SSW) 2,784 5.9 -12.4°
Reaches altitude 10° 12:14:52 10° 213° (SSW) 1,891 4.9 -12.0°
Maximum altitude 12:18:09 23° 266° (W) 1,259 3.6 -11.4°
Enters shadow 12:20:47 13° 313° (NW) 1,704 4.3 -11.0°
